Вернуться в каталог

CZ-6A DEB

АктивенSSO
NORAD 55529·DEBRIS·🇨🇳 China

Запущен Nov 11, 2022 с Taiyuan Satellite Launch Center

Loading…

Ближайшие Пролёты (ближайшие 24 часа)

TLE

СвежийSource: Space-Track

Эпоха: Sep 14, 2026, 10:37 UTC

1 55529U 22151YB  26257.44260407  .00004329  00000-0  84265-3 0  9992
2 55529  98.6124 318.3918 0085243  34.7194 325.9528 14.61317850197514

Отслеживайте CZ-6A DEB в реальном времени с AllMySat

Download on the App Store